Oujda/Angades, Morocco

10:34 PM WET on January 19, 2017 (GMT +0000)
Angads

Weather History for GMFO - January, 2014

Change the Weather History Date:

Wednesday, January 22, 2014

  Actual Average Record
Temperature  
Mean Temperature 46 °F -  
Max Temperature 57 °F 60 °F 70 °F (2016)
Min Temperature 35 °F 39 °F 30 °F (2000)
Degree Days  
Heating Degree Days 19    
Moisture  
Dew Point 45 °F    
Average Humidity 79    
Maximum Humidity 88    
Minimum Humidity 62    
Precipitation  
Precipitation 0.03 in 0.05 in - ()
Sea Level Pressure  
Sea Level Pressure 30.03 in    
Wind  
Wind Speed 11 mph ()    
Max Wind Speed 21 mph    
Max Gust Speed -    
Visibility 6.2 miles    
Events Rain    
Averages and records for this station are not official NWS values.
T = Trace of Precipitation, MM = Missing Value Source: Averaged Metar Reports

Daily Weather History Graph

Daily Weather History Graph

Search for Another Location

Airport or City:

Trip Planner

Search our weather history database for the weather conditions in past years. The results will help you decide how hot, cold, wet, or windy it might be!

Date:

Astronomy

Jan. 22, 2014 Rise Set
Actual Time 7:12 AM WET 5:26 PM WET
Civil Twilight 6:45 AM WET 5:53 PM WET
Nautical Twilight 6:14 AM WET 6:24 PM WET
Astronomical Twilight 5:44 AM WET 6:54 PM WET
Moon 11:27 PM WET (1/22) 10:21 AM WET (1/22)
Length of Visible Light 11h 08m
Length of Day
10h 14m
Waning Gibbous, 67% of the Moon is Illuminated
Jan 22
Waning Gibbous
Jan 24
Last Quarter
Jan 30
New
Feb 6
First Quarter
Feb 14
Full

Hourly Weather History & Observations

Time (WET) Temp. Windchill Dew Point Humidity Pressure Visibility Wind Dir Wind Speed Gust Speed Precip Events Conditions
12:00 AM 45 °F - 40 °F 75% 30.13 in 6 mi SW 11.5 mph - -   Clear
12:00 AM 44.6 °F 38.8 °F 39.2 °F 81% 30.09 in - SW 11.5 mph - N/A   Clear
2:00 AM 44.6 °F 40.2 °F 39.2 °F 81% 30.06 in - WSW 8.1 mph - N/A   Unknown
3:00 AM 45 °F - 39 °F 71% 30.08 in 9 mi SSW 9.2 mph - -   Scattered Clouds
3:00 AM 44.6 °F 39.7 °F 39.2 °F 81% 30.04 in 6.2 mi SSW 9.2 mph - N/A   Scattered Clouds
6:00 AM 50 °F - 41 °F 62% 30.02 in 9 mi SW 8.1 mph - -   Scattered Clouds
6:00 AM 50.0 °F - 41.0 °F 71% 30.01 in 6.2 mi SW 8.1 mph - N/A   Scattered Clouds
8:00 AM 50.0 °F - 44.6 °F 82% 30.04 in 5.0 mi SW 10.4 mph - N/A Rain Light Rain
8:49 AM 50 °F - 45 °F 77% 30.05 in 5 mi WSW 18.4 mph - - Rain Light Rain
9:00 AM 50.0 °F - 44.6 °F 82% 30.04 in 5.0 mi WSW 18.4 mph - N/A Rain Light Rain
10:00 AM 50.0 °F - 46.4 °F 87% 30.04 in 6.2 mi WSW 18.4 mph - N/A   Mostly Cloudy
11:00 AM 50.0 °F - 46.4 °F 87% 30.04 in 5.0 mi WSW 16.1 mph - N/A Rain Light Rain
12:00 PM 52 °F - 47 °F 76% 30.02 in 6 mi West 20.7 mph - -   Partly Cloudy
12:00 PM 51.8 °F - 46.4 °F 82% 30.04 in 6.2 mi West 20.7 mph - N/A   Mostly Cloudy
1:00 PM 51.8 °F - 46.4 °F 82% 29.98 in 6.2 mi WSW 18.4 mph - N/A   Mostly Cloudy
2:00 PM 53.6 °F - 48.2 °F 82% 29.98 in 6.2 mi West 19.6 mph - N/A   Mostly Cloudy
2:46 PM 56 °F - 48 °F 67% 29.96 in 6 mi West 17.3 mph - -   Mostly Cloudy
5:00 PM 55.4 °F - 48.2 °F 77% 29.98 in 6.2 mi WSW 16.1 mph - N/A   Mostly Cloudy
5:46 PM 54 °F - 48 °F 75% 29.99 in 6 mi WSW 11.5 mph - -   Mostly Cloudy
7:00 PM 53.6 °F - 48.2 °F 82% 30.01 in 6.2 mi WSW 11.5 mph - N/A   Mostly Cloudy
9:00 PM 51 °F - 48 °F 86% 30.05 in 6 mi WNW 2.3 mph - -   Partly Cloudy
9:00 PM 51.8 °F - 48.2 °F 88% 30.04 in 6.2 mi Variable 2.3 mph - N/A   Scattered Clouds
10:00 PM 50.0 °F - 44.6 °F 82% 30.04 in 6.2 mi West 5.8 mph - N/A   Scattered Clouds
11:00 PM 50.0 °F - 46.4 °F 87% 30.04 in 6.2 mi West 8.1 mph - N/A   Scattered Clouds